MEXSAT 3

Last updated on Mon Sep 07 2026 00:02:58 GMT+0000 (Coordinated Universal Time)

1 39035U 12075B 26249.56902823 -.00000041 00000+0 00000+0 0 9997 2 39035 0.0162 129.6170 0001413 92.4767 213.6235 1.00267980 7867
UTC large
Height (km)
Speed (km/s)
/
Latitude / Longitude
Inclination (degrees)
Orbital Period (minutes)
Azimuth
Elevation
Range (km)
Doppler Factor

Next 0 passes for location: London (51.5072 / 0.1276)

No passes found over London.
MEXSAT 3